Вернуться в каталог

NOAA 16 DEB

АктивенSSO
NORAD 41510·DEBRIS·🇺🇸 United States

Запущен Sep 21, 2000 с Vandenberg Space Force Base

Loading…

Ближайшие Пролёты (ближайшие 24 часа)

TLE

СвежийSource: Space-Track

Эпоха: Sep 13, 2026, 12:05 UTC

1 41510U 00055MJ  26256.50370706  .00002601  00000-0  10162-2 0  9991
2 41510  98.7559 350.6871 0024971 114.8608 245.5174 14.30284356542013

Отслеживайте NOAA 16 DEB в реальном времени с AllMySat

Download on the App Store